Torna al catalogo

S-Net D

S-NET D

AttivoRadioamatoreSSO
NORAD 43186·PAYLOAD·🇩🇪 Germany

Lanciato Feb 1, 2018 da Vostochny Cosmodrome

Loading…

Prossimi Passaggi (prossime 24 ore)

TLE

AggiornatoSource: AMSAT

Epoca: Sep 13, 2026, 17:11 UTC

1 43186U 18014G   26256.71615829  .00003337  00000-0  17035-3 0  9991
2 43186  97.5254 160.9482 0009835  74.6778 285.5542 15.17369169472181

Traccia S-Net D in tempo reale con AllMySat

Download on the App Store